Time,TemperatureF,DewpointF,PressureIn,WindDirection,WindDirectionDegrees,WindSpeedMPH,WindSpeedGustMPH,Humidity,HourlyPrecipIn,Conditions,Clouds,dailyrainin,SoftwareType,DateUTC
2013-12-10 00:01:00,63.5,63.5,30.06,ESE,115,0.0,0.0,100,0.00,,,0.00,Wunderground v.1.15,2013-12-10 05:01:00,
2013-12-10 00:02:00,63.5,63.5,30.06,ESE,115,0.0,0.0,100,0.00,,,0.00,Wunderground v.1.15,2013-12-10 05:02:00,
2013-12-10 00:03:00,63.5,63.5,30.06,ESE,115,0.0,0.0,100,0.00,,,0.00,Wunderground v.1.15,2013-12-10 05:03:00,
2013-12-10 00:06:00,63.5,63.5,30.06,ESE,115,0.0,0.0,100,0.00,,,0.00,Wunderground v.1.15,2013-12-10 05:06:00,
2013-12-10 00:09:00,63.5,63.5,30.06,ESE,115,0.0,0.0,100,0.00,,,0.00,Wunderground v.1.15,2013-12-10 05:09:00,
2013-12-10 00:15:00,63.5,63.5,30.05,ESE,115,0.0,0.0,100,0.00,,,0.00,Wunderground v.1.15,2013-12-10 05:15:00,
2013-12-10 00:19:00,63.5,63.5,30.05,ESE,115,0.0,0.0,100,0.00,,,0.00,Wunderground v.1.15,2013-12-10 05:19:00,
2013-12-10 00:24:00,63.5,63.5,30.05,ESE,115,0.0,0.0,100,0.00,,,0.00,Wunderground v.1.15,2013-12-10 05:24:00,
2013-12-10 00:30:00,63.4,63.4,30.05,ESE,115,0.0,0.0,100,0.00,,,0.00,Wunderground v.1.15,2013-12-10 05:30:00,
2013-12-10 00:36:00,63.4,63.4,30.05,ESE,121,0.0,0.0,100,0.00,,,0.00,Wunderground v.1.15,2013-12-10 05:36:00,
2013-12-10 00:41:00,63.4,63.4,30.05,ESE,121,0.0,0.0,100,0.00,,,0.00,Wunderground v.1.15,2013-12-10 05:41:00,
2013-12-10 00:47:00,63.4,63.4,30.04,ESE,121,0.0,0.0,100,0.00,,,0.00,Wunderground v.1.15,2013-12-10 05:47:00,
2013-12-10 00:53:00,63.4,63.4,30.04,ESE,121,0.0,0.0,100,0.00,,,0.00,Wunderground v.1.15,2013-12-10 05:53:00,
2013-12-10 00:58:00,63.4,63.4,30.04,ESE,121,0.0,0.0,100,0.00,,,0.00,Wunderground v.1.15,2013-12-10 05:58:00,
2013-12-10 01:03:00,63.4,63.4,30.04,ESE,121,0.0,0.0,100,0.00,,,0.00,Wunderground v.1.15,2013-12-10 06:03:00,
2013-12-10 01:09:00,63.4,63.4,30.04,ESE,121,0.0,0.0,100,0.00,,,0.00,Wunderground v.1.15,2013-12-10 06:09:00,
2013-12-10 01:15:00,63.7,63.7,30.04,ESE,121,0.0,0.0,100,0.00,,,0.00,Wunderground v.1.15,2013-12-10 06:15:00,
2013-12-10 01:21:00,64.0,64.0,30.04,ESE,121,0.0,0.0,100,0.00,,,0.00,Wunderground v.1.15,2013-12-10 06:21:00,
2013-12-10 01:26:00,64.3,64.3,30.04,ESE,121,0.0,0.0,100,0.00,,,0.00,Wunderground v.1.15,2013-12-10 06:26:00,
2013-12-10 01:32:00,64.7,64.7,30.03,SW,231,0.0,0.0,100,0.00,,,0.00,Wunderground v.1.15,2013-12-10 06:32:00,
2013-12-10 01:38:00,64.8,64.8,30.03,SW,231,0.0,0.0,100,0.00,,,0.00,Wunderground v.1.15,2013-12-10 06:38:00,
2013-12-10 01:44:00,65.0,65.0,30.03,SW,231,0.0,0.0,100,0.00,,,0.00,Wunderground v.1.15,2013-12-10 06:44:00,
2013-12-10 01:50:00,65.2,65.2,30.03,SW,231,0.0,0.0,100,0.00,,,0.00,Wunderground v.1.15,2013-12-10 06:50:00,
2013-12-10 01:55:00,65.2,65.2,30.03,SW,231,0.0,0.0,100,0.00,,,0.00,Wunderground v.1.15,2013-12-10 06:55:00,
2013-12-10 02:00:00,65.2,65.2,30.03,SW,231,0.0,0.0,100,0.00,,,0.00,Wunderground v.1.15,2013-12-10 07:00:00,
2013-12-10 02:05:00,65.2,65.2,30.03,SW,231,0.0,0.0,100,0.00,,,0.00,Wunderground v.1.15,2013-12-10 07:05:00,
2013-12-10 02:10:00,65.2,65.2,30.03,SW,231,0.0,0.0,100,0.00,,,0.00,Wunderground v.1.15,2013-12-10 07:10:00,
2013-12-10 02:15:00,65.2,65.2,30.02,SW,231,0.0,0.0,100,0.00,,,0.00,Wunderground v.1.15,2013-12-10 07:15:00,
2013-12-10 02:20:00,65.2,65.2,30.02,SW,231,0.0,0.0,100,0.00,,,0.00,Wunderground v.1.15,2013-12-10 07:20:00,
2013-12-10 02:25:00,65.2,65.2,30.02,SW,231,1.0,1.0,100,0.00,,,0.00,Wunderground v.1.15,2013-12-10 07:25:00,
2013-12-10 02:30:00,65.2,65.2,30.02,SW,231,0.0,0.0,100,0.00,,,0.00,Wunderground v.1.15,2013-12-10 07:30:00,
2013-12-10 02:35:00,65.0,65.0,30.02,SW,231,0.0,0.0,100,0.00,,,0.00,Wunderground v.1.15,2013-12-10 07:35:00,
2013-12-10 02:40:00,65.0,65.0,30.02,SW,231,0.0,0.0,100,0.00,,,0.00,Wunderground v.1.15,2013-12-10 07:40:00,
2013-12-10 02:45:00,65.0,65.0,30.02,SW,231,0.0,0.0,100,0.00,,,0.00,Wunderground v.1.15,2013-12-10 07:45:00,
2013-12-10 02:50:00,64.8,64.8,30.02,SW,231,0.0,0.0,100,0.00,,,0.00,Wunderground v.1.15,2013-12-10 07:50:00,
2013-12-10 02:55:00,64.8,64.8,30.02,SW,231,0.0,0.0,100,0.00,,,0.00,Wunderground v.1.15,2013-12-10 07:55:00,
2013-12-10 03:00:00,64.7,64.7,30.03,SW,231,0.0,0.0,100,0.00,,,0.00,Wunderground v.1.15,2013-12-10 08:00:00,
2013-12-10 03:05:00,64.7,64.7,30.03,SW,231,0.0,0.0,100,0.00,,,0.00,Wunderground v.1.15,2013-12-10 08:05:00,
2013-12-10 03:10:00,64.7,64.7,30.03,SW,231,0.0,0.0,100,0.00,,,0.00,Wunderground v.1.15,2013-12-10 08:10:00,
2013-12-10 03:15:00,64.7,64.7,30.02,SW,231,0.0,0.0,100,0.00,,,0.00,Wunderground v.1.15,2013-12-10 08:15:00,
2013-12-10 03:20:00,64.5,64.5,30.02,SW,231,0.0,0.0,100,0.00,,,0.00,Wunderground v.1.15,2013-12-10 08:20:00,
2013-12-10 03:25:00,64.5,64.5,30.02,SW,231,0.0,0.0,100,0.00,,,0.00,Wunderground v.1.15,2013-12-10 08:25:00,
2013-12-10 03:31:00,64.5,64.5,30.02,SW,231,0.0,0.0,100,0.00,,,0.00,Wunderground v.1.15,2013-12-10 08:31:00,
2013-12-10 03:36:00,64.3,64.3,30.02,SW,231,0.0,0.0,100,0.00,,,0.00,Wunderground v.1.15,2013-12-10 08:36:00,
2013-12-10 03:41:00,64.3,64.3,30.02,SW,231,0.0,0.0,100,0.00,,,0.00,Wunderground v.1.15,2013-12-10 08:41:00,
2013-12-10 03:46:00,64.2,64.2,30.01,SW,231,0.0,0.0,100,0.00,,,0.00,Wunderground v.1.15,2013-12-10 08:46:00,
2013-12-10 03:51:00,64.2,64.2,30.01,SW,231,0.0,0.0,100,0.00,,,0.00,Wunderground v.1.15,2013-12-10 08:51:00,
2013-12-10 03:56:00,64.2,64.2,30.01,SW,231,0.0,0.0,100,0.00,,,0.00,Wunderground v.1.15,2013-12-10 08:56:00,
2013-12-10 04:01:00,64.2,64.2,30.01,SW,231,0.0,0.0,100,0.00,,,0.00,Wunderground v.1.15,2013-12-10 09:01:00,
2013-12-10 04:04:00,64.2,64.2,30.01,SW,231,0.0,0.0,100,0.00,,,0.00,Wunderground v.1.15,2013-12-10 09:04:00,
2013-12-10 04:09:00,64.3,64.3,30.01,SW,231,0.0,0.0,100,0.00,,,0.00,Wunderground v.1.15,2013-12-10 09:09:00,
2013-12-10 04:14:00,64.5,64.5,30.01,SW,231,0.0,0.0,100,0.00,,,0.00,Wunderground v.1.15,2013-12-10 09:14:00,
2013-12-10 04:19:00,64.5,64.5,30.01,SW,231,0.0,0.0,100,0.00,,,0.00,Wunderground v.1.15,2013-12-10 09:19:00,
2013-12-10 04:24:00,64.7,64.7,30.01,SW,231,0.0,1.0,100,0.00,,,0.00,Wunderground v.1.15,2013-12-10 09:24:00,
2013-12-10 04:29:00,64.8,64.8,30.01,SW,231,1.0,2.0,100,0.00,,,0.00,Wunderground v.1.15,2013-12-10 09:29:00,
2013-12-10 04:34:00,65.0,65.0,30.01,SW,231,0.0,1.0,100,0.00,,,0.00,Wunderground v.1.15,2013-12-10 09:34:00,
2013-12-10 04:39:00,65.0,65.0,30.01,SW,231,0.0,1.0,100,0.00,,,0.00,Wunderground v.1.15,2013-12-10 09:39:00,
2013-12-10 04:44:00,65.2,65.2,30.01,SW,231,0.0,0.0,100,0.00,,,0.00,Wunderground v.1.15,2013-12-10 09:44:00,
2013-12-10 04:49:00,65.2,65.2,30.01,SW,231,0.0,1.0,100,0.00,,,0.00,Wunderground v.1.15,2013-12-10 09:49:00,
2013-12-10 04:54:00,65.2,65.2,30.01,SW,231,1.0,1.0,100,0.00,,,0.00,Wunderground v.1.15,2013-12-10 09:54:00,
2013-12-10 04:59:00,65.3,65.3,30.01,SW,231,0.0,2.0,100,0.00,,,0.00,Wunderground v.1.15,2013-12-10 09:59:00,
2013-12-10 05:04:00,65.3,65.3,30.01,East,88,2.0,2.0,100,0.00,,,0.00,Wunderground v.1.15,2013-12-10 10:04:00,
2013-12-10 05:09:00,65.5,65.5,30.01,East,87,0.0,2.0,100,0.00,,,0.00,Wunderground v.1.15,2013-12-10 10:09:00,
2013-12-10 05:14:00,65.6,65.6,30.01,SSW,208,0.0,1.0,100,0.00,,,0.00,Wunderground v.1.15,2013-12-10 10:14:00,
2013-12-10 05:19:00,65.8,65.8,30.01,SW,233,0.0,3.0,100,0.00,,,0.00,Wunderground v.1.15,2013-12-10 10:19:00,
2013-12-10 05:24:00,65.8,65.8,30.01,SW,233,1.0,2.0,100,0.00,,,0.00,Wunderground v.1.15,2013-12-10 10:24:00,
2013-12-10 05:29:00,66.0,66.0,30.01,SW,233,1.0,2.0,100,0.00,,,0.00,Wunderground v.1.15,2013-12-10 10:29:00,
2013-12-10 05:34:00,66.1,66.1,30.01,SW,233,1.0,2.0,100,0.00,,,0.00,Wunderground v.1.15,2013-12-10 10:34:00,
2013-12-10 05:39:00,66.1,66.1,30.01,SW,233,1.0,2.0,100,0.00,,,0.00,Wunderground v.1.15,2013-12-10 10:39:00,
2013-12-10 05:44:00,66.3,66.3,30.01,WSW,249,1.0,6.0,100,0.00,,,0.00,Wunderground v.1.15,2013-12-10 10:44:00,
2013-12-10 05:49:00,66.6,66.6,30.01,WSW,242,2.0,6.0,100,0.00,,,0.00,Wunderground v.1.15,2013-12-10 10:49:00,
2013-12-10 05:54:00,66.6,66.6,30.01,WSW,250,2.0,5.0,100,0.00,,,0.00,Wunderground v.1.15,2013-12-10 10:54:00,
2013-12-10 05:59:00,66.6,66.6,30.01,WSW,245,2.0,6.0,100,0.00,,,0.00,Wunderground v.1.15,2013-12-10 10:59:00,
2013-12-10 06:04:00,66.6,66.6,30.01,WSW,243,1.0,3.0,100,0.00,,,0.00,Wunderground v.1.15,2013-12-10 11:04:00,
2013-12-10 06:09:00,66.4,66.4,30.01,SW,235,0.0,4.0,100,0.00,,,0.00,Wunderground v.1.15,2013-12-10 11:09:00,
2013-12-10 06:14:00,66.4,66.4,30.02,WSW,246,1.0,3.0,100,0.00,,,0.00,Wunderground v.1.15,2013-12-10 11:14:00,
2013-12-10 06:19:00,66.4,66.4,30.02,WSW,246,2.0,3.0,100,0.00,,,0.00,Wunderground v.1.15,2013-12-10 11:19:00,
2013-12-10 06:24:00,66.4,66.4,30.02,WSW,243,0.0,4.0,100,0.00,,,0.00,Wunderground v.1.15,2013-12-10 11:24:00,
2013-12-10 06:29:00,66.6,66.3,30.02,WSW,243,3.0,5.0,99,0.00,,,0.00,Wunderground v.1.15,2013-12-10 11:29:00,
2013-12-10 06:34:00,66.4,66.1,30.02,WSW,243,1.0,3.0,99,0.00,,,0.00,Wunderground v.1.15,2013-12-10 11:34:00,
2013-12-10 06:39:00,66.4,66.1,30.02,SW,233,3.0,5.0,99,0.00,,,0.00,Wunderground v.1.15,2013-12-10 11:39:00,
2013-12-10 06:44:00,66.4,66.1,30.02,WSW,253,2.0,6.0,99,0.00,,,0.00,Wunderground v.1.15,2013-12-10 11:44:00,
2013-12-10 06:49:00,66.4,66.1,30.02,WSW,249,3.0,6.0,99,0.00,,,0.00,Wunderground v.1.15,2013-12-10 11:49:00,
2013-12-10 06:55:00,66.4,66.1,30.02,WSW,242,0.0,3.0,99,0.00,,,0.00,Wunderground v.1.15,2013-12-10 11:55:00,
2013-12-10 06:59:00,66.4,66.1,30.02,WSW,242,0.0,1.0,99,0.00,,,0.00,Wunderground v.1.15,2013-12-10 11:59:00,
2013-12-10 07:05:00,66.3,66.0,30.02,WSW,239,0.0,3.0,99,0.00,,,0.00,Wunderground v.1.15,2013-12-10 12:05:00,
2013-12-10 07:10:00,66.3,66.0,30.02,WSW,250,0.0,1.0,99,0.00,,,0.00,Wunderground v.1.15,2013-12-10 12:10:00,
2013-12-10 07:15:00,66.3,65.7,30.02,WSW,250,0.0,2.0,98,0.00,,,0.00,Wunderground v.1.15,2013-12-10 12:15:00,
2013-12-10 07:20:00,66.3,65.7,30.02,WSW,250,0.0,1.0,98,0.00,,,0.00,Wunderground v.1.15,2013-12-10 12:20:00,
2013-12-10 07:25:00,66.3,65.7,30.02,WSW,250,2.0,2.0,98,0.00,,,0.00,Wunderground v.1.15,2013-12-10 12:25:00,
2013-12-10 07:30:00,66.3,65.7,30.02,WSW,250,0.0,0.0,98,0.00,,,0.00,Wunderground v.1.15,2013-12-10 12:30:00,
2013-12-10 07:35:00,66.3,65.7,30.02,WSW,250,0.0,2.0,98,0.00,,,0.00,Wunderground v.1.15,2013-12-10 12:35:00,
2013-12-10 07:40:00,66.4,65.8,30.02,WSW,250,1.0,1.0,98,0.00,,,0.00,Wunderground v.1.15,2013-12-10 12:40:00,
2013-12-10 07:45:00,66.4,65.8,30.02,WSW,250,0.0,2.0,98,0.00,,,0.00,Wunderground v.1.15,2013-12-10 12:45:00,
2013-12-10 07:50:00,66.4,65.8,30.02,WSW,250,1.0,1.0,98,0.00,,,0.00,Wunderground v.1.15,2013-12-10 12:50:00,
2013-12-10 07:55:00,66.4,65.8,30.02,WSW,250,0.0,2.0,98,0.00,,,0.00,Wunderground v.1.15,2013-12-10 12:55:00,
2013-12-10 08:00:00,66.6,66.0,30.01,WSW,250,0.0,0.0,98,0.00,,,0.00,Wunderground v.1.15,2013-12-10 13:00:00,
2013-12-10 08:05:00,66.6,66.0,30.01,WSW,250,0.0,2.0,98,0.00,,,0.00,Wunderground v.1.15,2013-12-10 13:05:00,
2013-12-10 08:10:00,66.4,65.5,30.01,WSW,250,0.0,2.0,97,0.00,,,0.00,Wunderground v.1.15,2013-12-10 13:10:00,
2013-12-10 08:15:00,66.4,65.5,30.01,WSW,250,0.0,2.0,97,0.00,,,0.00,Wunderground v.1.15,2013-12-10 13:15:00,
2013-12-10 08:20:00,66.4,65.5,30.01,WSW,250,0.0,2.0,97,0.00,,,0.01,Wunderground v.1.15,2013-12-10 13:20:00,
2013-12-10 08:25:00,66.6,65.7,30.01,WSW,250,0.0,2.0,97,0.00,,,0.01,Wunderground v.1.15,2013-12-10 13:25:00,
2013-12-10 08:30:00,66.6,65.7,30.01,WSW,250,0.0,2.0,97,0.00,,,0.01,Wunderground v.1.15,2013-12-10 13:30:00,
2013-12-10 08:35:00,66.8,65.9,30.01,WSW,250,0.0,3.0,97,0.00,,,0.01,Wunderground v.1.15,2013-12-10 13:35:00,
2013-12-10 08:40:00,66.8,65.9,30.01,WSW,250,0.0,1.0,97,0.00,,,0.01,Wunderground v.1.15,2013-12-10 13:40:00,
2013-12-10 08:45:00,66.9,66.0,30.01,WSW,250,0.0,3.0,97,0.00,,,0.01,Wunderground v.1.15,2013-12-10 13:45:00,
2013-12-10 08:50:00,66.9,66.0,30.01,WSW,250,0.0,1.0,97,0.00,,,0.01,Wunderground v.1.15,2013-12-10 13:50:00,
2013-12-10 08:55:00,66.9,65.7,30.01,WSW,245,0.0,5.0,96,0.00,,,0.01,Wunderground v.1.15,2013-12-10 13:55:00,
2013-12-10 09:01:00,67.1,65.9,30.00,WSW,245,2.0,2.0,96,0.00,,,0.01,Wunderground v.1.15,2013-12-10 14:01:00,
2013-12-10 09:06:00,67.3,66.1,30.00,WSW,249,2.0,4.0,96,0.00,,,0.01,Wunderground v.1.15,2013-12-10 14:06:00,
2013-12-10 09:11:00,67.4,66.2,30.00,WSW,249,2.0,2.0,96,0.00,,,0.01,Wunderground v.1.15,2013-12-10 14:11:00,
2013-12-10 09:16:00,67.4,66.2,30.01,WSW,241,3.0,4.0,96,0.00,,,0.01,Wunderground v.1.15,2013-12-10 14:16:00,
2013-12-10 09:21:00,67.6,66.4,30.01,SW,232,2.0,2.0,96,0.00,,,0.01,Wunderground v.1.15,2013-12-10 14:21:00,
2013-12-10 09:26:00,67.8,66.6,30.01,WSW,245,0.0,8.0,96,0.00,,,0.01,Wunderground v.1.15,2013-12-10 14:26:00,
2013-12-10 09:31:00,67.9,66.7,30.02,SW,235,3.0,6.0,96,0.00,,,0.01,Wunderground v.1.15,2013-12-10 14:31:00,
2013-12-10 09:36:00,67.9,66.7,30.02,WSW,256,3.0,6.0,96,0.00,,,0.01,Wunderground v.1.15,2013-12-10 14:36:00,
2013-12-10 09:41:00,67.9,66.7,30.02,West,259,2.0,3.0,96,0.00,,,0.01,Wunderground v.1.15,2013-12-10 14:41:00,
2013-12-10 09:46:00,67.9,66.7,30.03,WSW,249,2.0,6.0,96,0.00,,,0.01,Wunderground v.1.15,2013-12-10 14:46:00,
2013-12-10 09:51:00,67.9,66.7,30.03,SW,231,1.0,5.0,96,0.00,,,0.01,Wunderground v.1.15,2013-12-10 14:51:00,
2013-12-10 09:56:00,67.8,66.3,30.03,SW,235,1.0,5.0,95,0.00,,,0.01,Wunderground v.1.15,2013-12-10 14:56:00,
2013-12-10 10:01:00,67.8,66.3,30.02,WSW,249,2.0,3.0,95,0.00,,,0.01,Wunderground v.1.15,2013-12-10 15:01:00,
2013-12-10 10:06:00,67.6,66.4,30.02,WSW,238,0.0,7.0,96,0.00,,,0.02,Wunderground v.1.15,2013-12-10 15:06:00,
2013-12-10 10:11:00,67.6,66.4,30.02,WSW,253,1.0,3.0,96,0.08,,,0.03,Wunderground v.1.15,2013-12-10 15:11:00,
2013-12-10 10:16:00,67.6,66.7,30.02,WSW,250,0.0,3.0,97,0.13,,,0.04,Wunderground v.1.15,2013-12-10 15:16:00,
2013-12-10 10:21:00,67.8,66.9,30.02,WSW,249,0.0,2.0,97,0.15,,,0.05,Wunderground v.1.15,2013-12-10 15:21:00,
2013-12-10 10:26:00,67.9,67.3,30.02,WSW,249,0.0,2.0,98,0.09,,,0.05,Wunderground v.1.15,2013-12-10 15:26:00,
2013-12-10 10:31:00,68.1,67.5,30.01,WSW,239,2.0,3.0,98,0.05,,,0.05,Wunderground v.1.15,2013-12-10 15:31:00,
2013-12-10 10:36:00,68.1,67.5,30.01,WSW,243,0.0,3.0,98,0.04,,,0.05,Wunderground v.1.15,2013-12-10 15:36:00,
2013-12-10 10:41:00,68.1,67.5,30.01,WSW,238,2.0,3.0,98,0.00,,,0.05,Wunderground v.1.15,2013-12-10 15:41:00,
2013-12-10 10:46:00,67.9,67.3,30.02,ESE,122,6.0,6.0,98,0.00,,,0.05,Wunderground v.1.15,2013-12-10 15:46:00,
2013-12-10 10:51:00,67.8,67.2,30.02,ESE,105,1.0,3.0,98,0.00,,,0.05,Wunderground v.1.15,2013-12-10 15:51:00,
2013-12-10 10:56:00,67.6,67.0,30.02,WSW,249,1.0,4.0,98,0.00,,,0.05,Wunderground v.1.15,2013-12-10 15:56:00,
2013-12-10 11:01:00,67.4,66.8,30.00,WSW,239,0.0,5.0,98,0.00,,,0.05,Wunderground v.1.15,2013-12-10 16:01:00,
2013-12-10 11:06:00,67.3,66.7,30.00,WSW,241,1.0,5.0,98,0.00,,,0.05,Wunderground v.1.15,2013-12-10 16:06:00,
2013-12-10 11:11:00,67.3,66.7,30.00,WSW,250,0.0,2.0,98,0.00,,,0.05,Wunderground v.1.15,2013-12-10 16:11:00,
2013-12-10 11:16:00,67.3,66.4,30.00,WSW,246,1.0,4.0,97,0.00,,,0.05,Wunderground v.1.15,2013-12-10 16:16:00,
2013-12-10 11:21:00,67.3,66.4,30.00,WSW,246,0.0,3.0,97,0.00,,,0.05,Wunderground v.1.15,2013-12-10 16:21:00,
2013-12-10 11:26:00,67.4,66.5,30.00,SW,229,0.0,6.0,97,0.00,,,0.05,Wunderground v.1.15,2013-12-10 16:26:00,
2013-12-10 11:31:00,67.4,66.2,30.01,WSW,250,2.0,5.0,96,0.00,,,0.05,Wunderground v.1.15,2013-12-10 16:31:00,
2013-12-10 11:36:00,67.6,66.4,30.01,WSW,242,0.0,5.0,96,0.00,,,0.05,Wunderground v.1.15,2013-12-10 16:36:00,
2013-12-10 11:42:00,67.8,66.6,30.01,WSW,255,2.0,3.0,96,0.00,,,0.05,Wunderground v.1.15,2013-12-10 16:42:00,
2013-12-10 11:47:00,67.8,66.3,30.00,West,260,2.0,6.0,95,0.00,,,0.05,Wunderground v.1.15,2013-12-10 16:47:00,
2013-12-10 11:52:00,67.8,66.3,30.00,WSW,241,1.0,5.0,95,0.00,,,0.05,Wunderground v.1.15,2013-12-10 16:52:00,
2013-12-10 11:57:00,68.3,66.8,30.00,WSW,241,0.0,5.0,95,0.00,,,0.05,Wunderground v.1.15,2013-12-10 16:57:00,
2013-12-10 12:02:00,68.3,66.5,30.00,WSW,248,2.0,4.0,94,0.00,,,0.05,Wunderground v.1.15,2013-12-10 17:02:00,
2013-12-10 12:07:00,68.6,66.5,30.00,WSW,246,0.0,5.0,93,0.00,,,0.05,Wunderground v.1.15,2013-12-10 17:07:00,
2013-12-10 12:12:00,68.9,66.8,30.00,WSW,246,2.0,2.0,93,0.00,,,0.05,Wunderground v.1.15,2013-12-10 17:12:00,
2013-12-10 12:17:00,69.4,67.3,29.99,WSW,246,3.0,3.0,93,0.00,,,0.05,Wunderground v.1.15,2013-12-10 17:17:00,
2013-12-10 12:22:00,69.8,67.7,29.99,WSW,249,1.0,3.0,93,0.00,,,0.05,Wunderground v.1.15,2013-12-10 17:22:00,
2013-12-10 12:27:00,70.1,67.7,29.99,SW,225,3.0,6.0,92,0.00,,,0.05,Wunderground v.1.15,2013-12-10 17:27:00,
2013-12-10 12:32:00,70.4,67.3,29.98,WSW,246,1.0,2.0,90,0.00,,,0.05,Wunderground v.1.15,2013-12-10 17:32:00,
2013-12-10 12:37:00,70.8,67.7,29.98,WSW,250,1.0,5.0,90,0.00,,,0.05,Wunderground v.1.15,2013-12-10 17:37:00,
2013-12-10 12:42:00,71.1,67.7,29.98,WSW,239,2.0,5.0,89,0.00,,,0.05,Wunderground v.1.15,2013-12-10 17:42:00,
2013-12-10 12:47:00,71.3,67.6,29.97,WSW,255,4.0,6.0,88,0.00,,,0.05,Wunderground v.1.15,2013-12-10 17:47:00,
2013-12-10 12:52:00,71.5,67.4,29.97,WSW,256,3.0,8.0,87,0.00,,,0.05,Wunderground v.1.15,2013-12-10 17:52:00,
2013-12-10 12:57:00,71.6,67.5,29.97,WSW,253,5.0,8.0,87,0.00,,,0.05,Wunderground v.1.15,2013-12-10 17:57:00,
2013-12-10 13:02:00,71.6,67.5,29.98,WSW,241,2.0,5.0,87,0.00,,,0.05,Wunderground v.1.15,2013-12-10 18:02:00,
2013-12-10 13:07:00,70.8,66.7,29.98,WSW,245,2.0,7.0,87,0.00,,,0.06,Wunderground v.1.15,2013-12-10 18:07:00,
2013-12-10 13:12:00,69.8,66.4,29.98,WSW,253,6.0,6.0,89,0.00,,,0.06,Wunderground v.1.15,2013-12-10 18:12:00,
2013-12-10 13:17:00,68.8,65.4,30.00,West,272,1.0,6.0,89,0.00,,,0.06,Wunderground v.1.15,2013-12-10 18:17:00,
2013-12-10 13:22:00,67.9,64.5,30.00,WSW,257,1.0,5.0,89,0.00,,,0.06,Wunderground v.1.15,2013-12-10 18:22:00,
2013-12-10 13:27:00,67.4,64.4,30.00,WSW,255,2.0,5.0,90,0.00,,,0.06,Wunderground v.1.15,2013-12-10 18:27:00,
2013-12-10 13:32:00,67.1,64.1,30.00,WSW,248,1.0,3.0,90,0.00,,,0.06,Wunderground v.1.15,2013-12-10 18:32:00,
2013-12-10 13:37:00,67.1,64.1,30.00,WSW,252,1.0,5.0,90,0.00,,,0.06,Wunderground v.1.15,2013-12-10 18:37:00,
2013-12-10 13:42:00,67.1,64.1,30.00,WSW,250,1.0,3.0,90,0.00,,,0.06,Wunderground v.1.15,2013-12-10 18:42:00,
2013-12-10 13:47:00,67.3,64.3,30.00,WSW,243,1.0,5.0,90,0.00,,,0.06,Wunderground v.1.15,2013-12-10 18:47:00,
2013-12-10 13:52:00,67.6,64.2,30.00,WSW,249,2.0,2.0,89,0.00,,,0.06,Wunderground v.1.15,2013-12-10 18:52:00,
2013-12-10 13:57:00,67.8,64.1,30.00,WSW,255,1.0,6.0,88,0.00,,,0.06,Wunderground v.1.15,2013-12-10 18:57:00,
2013-12-10 14:02:00,67.8,63.5,30.00,West,260,1.0,3.0,86,0.00,,,0.06,Wunderground v.1.15,2013-12-10 19:02:00,
2013-12-10 14:07:00,67.8,63.5,30.00,WSW,250,0.0,4.0,86,0.00,,,0.06,Wunderground v.1.15,2013-12-10 19:07:00,
2013-12-10 14:12:00,67.9,63.6,30.00,WSW,249,0.0,2.0,86,0.00,,,0.06,Wunderground v.1.15,2013-12-10 19:12:00,
2013-12-10 14:17:00,68.1,63.4,30.00,West,269,1.0,6.0,85,0.00,,,0.06,Wunderground v.1.15,2013-12-10 19:17:00,
2013-12-10 14:22:00,68.3,63.3,30.00,WSW,243,3.0,5.0,84,0.00,,,0.06,Wunderground v.1.15,2013-12-10 19:22:00,
2013-12-10 14:27:00,68.3,61.5,30.00,NW,310,1.0,5.0,79,0.00,,,0.06,Wunderground v.1.15,2013-12-10 19:27:00,
2013-12-10 14:32:00,67.9,60.4,30.00,WSW,248,1.0,6.0,77,0.00,,,0.06,Wunderground v.1.15,2013-12-10 19:32:00,
2013-12-10 14:37:00,67.9,60.1,30.00,West,262,1.0,8.0,76,0.00,,,0.06,Wunderground v.1.15,2013-12-10 19:37:00,
2013-12-10 14:42:00,67.8,60.3,30.00,West,260,1.0,3.0,77,0.00,,,0.06,Wunderground v.1.15,2013-12-10 19:42:00,
2013-12-10 14:47:00,67.8,60.3,30.01,WSW,252,2.0,3.0,77,0.00,,,0.06,Wunderground v.1.15,2013-12-10 19:47:00,
2013-12-10 14:52:00,67.6,60.5,30.01,WSW,248,1.0,4.0,78,0.00,,,0.06,Wunderground v.1.15,2013-12-10 19:52:00,
2013-12-10 14:57:00,67.6,60.9,30.01,WNW,287,1.0,4.0,79,0.00,,,0.06,Wunderground v.1.15,2013-12-10 19:57:00,
2013-12-10 15:02:00,67.4,60.7,30.02,WSW,256,3.0,3.0,79,0.00,,,0.06,Wunderground v.1.15,2013-12-10 20:02:00,
2013-12-10 15:07:00,66.9,58.7,30.02,WSW,252,3.0,6.0,75,0.00,,,0.06,Wunderground v.1.15,2013-12-10 20:07:00,
2013-12-10 15:12:00,66.9,58.7,30.02,NW,311,0.0,3.0,75,0.00,,,0.06,Wunderground v.1.15,2013-12-10 20:12:00,
2013-12-10 15:17:00,66.8,58.6,30.03,West,272,1.0,3.0,75,0.00,,,0.06,Wunderground v.1.15,2013-12-10 20:17:00,
2013-12-10 15:22:00,66.8,58.6,30.03,WNW,297,2.0,3.0,75,0.00,,,0.06,Wunderground v.1.15,2013-12-10 20:22:00,
2013-12-10 15:27:00,66.6,58.1,30.03,West,270,1.0,6.0,74,0.00,,,0.06,Wunderground v.1.15,2013-12-10 20:27:00,
2013-12-10 15:32:00,66.4,56.7,30.04,WSW,253,2.0,5.0,71,0.00,,,0.06,Wunderground v.1.15,2013-12-10 20:32:00,
2013-12-10 15:37:00,66.1,56.4,30.04,West,260,2.0,5.0,71,0.00,,,0.06,Wunderground v.1.15,2013-12-10 20:37:00,
2013-12-10 15:42:00,65.8,56.1,30.04,WSW,257,0.0,3.0,71,0.00,,,0.06,Wunderground v.1.15,2013-12-10 20:42:00,
2013-12-10 15:47:00,65.8,56.5,30.05,WNW,293,2.0,3.0,72,0.00,,,0.06,Wunderground v.1.15,2013-12-10 20:47:00,
2013-12-10 15:52:00,65.5,56.2,30.05,West,259,1.0,3.0,72,0.00,,,0.06,Wunderground v.1.15,2013-12-10 20:52:00,
2013-12-10 15:57:00,65.3,55.7,30.05,NW,308,0.0,3.0,71,0.00,,,0.06,Wunderground v.1.15,2013-12-10 20:57:00,
2013-12-10 16:02:00,65.2,55.6,30.06,WSW,239,1.0,3.0,71,0.00,,,0.06,Wunderground v.1.15,2013-12-10 21:02:00,
2013-12-10 16:07:00,65.0,55.8,30.06,WSW,252,0.0,5.0,72,0.00,,,0.06,Wunderground v.1.15,2013-12-10 21:07:00,
2013-12-10 16:12:00,64.8,55.6,30.06,West,262,0.0,2.0,72,0.00,,,0.06,Wunderground v.1.15,2013-12-10 21:12:00,
2013-12-10 16:17:00,64.8,55.6,30.07,West,262,0.0,2.0,72,0.00,,,0.06,Wunderground v.1.15,2013-12-10 21:17:00,
2013-12-10 16:22:00,64.7,55.5,30.07,West,262,1.0,2.0,72,0.00,,,0.06,Wunderground v.1.15,2013-12-10 21:22:00,
2013-12-10 16:27:00,64.5,55.3,30.07,West,265,0.0,2.0,72,0.00,,,0.06,Wunderground v.1.15,2013-12-10 21:27:00,
2013-12-10 16:33:00,64.5,55.3,30.07,West,265,0.0,1.0,72,0.00,,,0.06,Wunderground v.1.15,2013-12-10 21:33:00,
2013-12-10 16:38:00,64.2,55.4,30.07,West,259,1.0,2.0,73,0.00,,,0.06,Wunderground v.1.15,2013-12-10 21:38:00,
2013-12-10 16:43:00,64.0,55.2,30.07,West,272,1.0,3.0,73,0.00,,,0.06,Wunderground v.1.15,2013-12-10 21:43:00,
2013-12-10 16:48:00,63.7,54.5,30.08,WNW,291,0.0,3.0,72,0.00,,,0.06,Wunderground v.1.15,2013-12-10 21:48:00,
2013-12-10 16:53:00,63.4,53.8,30.08,West,266,2.0,3.0,71,0.00,,,0.06,Wunderground v.1.15,2013-12-10 21:53:00,
2013-12-10 16:58:00,63.2,53.3,30.08,West,267,0.0,3.0,70,0.00,,,0.06,Wunderground v.1.15,2013-12-10 21:58:00,
2013-12-10 17:03:00,62.9,52.6,30.09,WNW,283,0.0,3.0,69,0.00,,,0.06,Wunderground v.1.15,2013-12-10 22:03:00,
2013-12-10 17:08:00,62.7,52.8,30.09,WNW,298,0.0,3.0,70,0.00,,,0.06,Wunderground v.1.15,2013-12-10 22:08:00,
2013-12-10 17:13:00,62.6,52.7,30.09,WNW,298,0.0,1.0,70,0.00,,,0.06,Wunderground v.1.15,2013-12-10 22:13:00,
2013-12-10 17:18:00,62.4,52.9,30.10,WNW,298,0.0,1.0,71,0.00,,,0.06,Wunderground v.1.15,2013-12-10 22:18:00,
2013-12-10 17:23:00,62.1,52.6,30.10,WNW,296,0.0,0.0,71,0.00,,,0.06,Wunderground v.1.15,2013-12-10 22:23:00,
2013-12-10 17:28:00,62.0,52.9,30.10,WNW,296,0.0,1.0,72,0.00,,,0.06,Wunderground v.1.15,2013-12-10 22:28:00,
2013-12-10 17:33:00,61.8,52.3,30.11,SW,224,1.0,2.0,71,0.00,,,0.06,Wunderground v.1.15,2013-12-10 22:33:00,
2013-12-10 17:38:00,61.6,52.5,30.11,SW,225,1.0,2.0,72,0.00,,,0.06,Wunderground v.1.15,2013-12-10 22:38:00,
2013-12-10 17:43:00,61.5,52.0,30.11,SW,225,0.0,1.0,71,0.00,,,0.06,Wunderground v.1.15,2013-12-10 22:43:00,
2013-12-10 17:48:00,61.3,52.2,30.12,SW,225,0.0,1.0,72,0.00,,,0.06,Wunderground v.1.15,2013-12-10 22:48:00,
2013-12-10 17:53:00,61.2,52.1,30.12,SW,225,0.0,1.0,72,0.00,,,0.06,Wunderground v.1.15,2013-12-10 22:53:00,
2013-12-10 17:58:00,61.0,52.3,30.12,SW,225,0.0,1.0,73,0.00,,,0.06,Wunderground v.1.15,2013-12-10 22:58:00,
2013-12-10 18:04:00,60.9,52.2,30.13,SW,225,0.0,0.0,73,0.00,,,0.06,Wunderground v.1.15,2013-12-10 23:04:00,
2013-12-10 18:09:00,60.5,51.8,30.13,West,262,0.0,2.0,73,0.00,,,0.06,Wunderground v.1.15,2013-12-10 23:09:00,
2013-12-10 18:14:00,60.5,51.8,30.15,West,265,0.0,1.0,73,0.00,,,0.06,Wunderground v.1.15,2013-12-10 23:14:00,
2013-12-10 18:19:00,60.4,51.7,30.15,West,265,0.0,1.0,73,0.00,,,0.06,Wunderground v.1.15,2013-12-10 23:19:00,
2013-12-10 18:24:00,60.2,51.5,30.15,West,263,0.0,2.0,73,0.00,,,0.06,Wunderground v.1.15,2013-12-10 23:24:00,
2013-12-10 18:29:00,60.1,51.4,30.16,NNW,339,0.0,2.0,73,0.00,,,0.06,Wunderground v.1.15,2013-12-10 23:29:00,
2013-12-10 18:34:00,60.1,51.4,30.16,West,259,0.0,3.0,73,0.00,,,0.06,Wunderground v.1.15,2013-12-10 23:34:00,
2013-12-10 18:39:00,59.9,51.2,30.16,West,259,0.0,3.0,73,0.00,,,0.06,Wunderground v.1.15,2013-12-10 23:39:00,
2013-12-10 18:44:00,59.9,51.2,30.17,West,259,0.0,0.0,73,0.00,,,0.06,Wunderground v.1.15,2013-12-10 23:44:00,
2013-12-10 18:49:00,59.8,51.5,30.17,West,259,0.0,0.0,74,0.00,,,0.06,Wunderground v.1.15,2013-12-10 23:49:00,
2013-12-10 18:54:00,59.8,51.9,30.17,West,259,0.0,0.0,75,0.00,,,0.06,Wunderground v.1.15,2013-12-10 23:54:00,
2013-12-10 18:59:00,59.8,51.9,30.18,SE,133,0.0,2.0,75,0.00,,,0.06,Wunderground v.1.15,2013-12-10 23:59:00,
2013-12-10 19:04:00,59.6,50.9,30.18,NW,311,2.0,3.0,73,0.00,,,0.06,Wunderground v.1.15,2013-12-11 00:04:00,
2013-12-10 19:09:00,59.5,49.3,30.18,SSE,167,0.0,10.0,69,0.00,,,0.06,Wunderground v.1.15,2013-12-11 00:09:00,
2013-12-10 19:14:00,59.3,49.1,30.19,NW,317,0.0,7.0,69,0.00,,,0.06,Wunderground v.1.15,2013-12-11 00:14:00,
2013-12-10 19:19:00,59.2,48.6,30.19,East,84,0.0,7.0,68,0.00,,,0.06,Wunderground v.1.15,2013-12-11 00:19:00,
2013-12-10 19:25:00,59.0,48.4,30.19,SE,126,1.0,2.0,68,0.00,,,0.06,Wunderground v.1.15,2013-12-11 00:25:00,
2013-12-10 19:30:00,58.9,48.0,30.20,NW,318,1.0,1.0,67,0.00,,,0.06,Wunderground v.1.15,2013-12-11 00:30:00,
2013-12-10 19:35:00,58.7,47.4,30.20,ESE,112,1.0,7.0,66,0.00,,,0.06,Wunderground v.1.15,2013-12-11 00:35:00,
2013-12-10 19:40:00,58.6,47.3,30.20,SE,145,0.0,1.0,66,0.00,,,0.06,Wunderground v.1.15,2013-12-11 00:40:00,
2013-12-10 19:45:00,58.3,47.0,30.21,NW,314,1.0,7.0,66,0.00,,,0.06,Wunderground v.1.15,2013-12-11 00:45:00,
2013-12-10 19:50:00,58.1,47.2,30.21,East,94,0.0,1.0,67,0.00,,,0.06,Wunderground v.1.15,2013-12-11 00:50:00,
2013-12-10 19:55:00,58.0,47.5,30.21,NNW,329,0.0,2.0,68,0.00,,,0.06,Wunderground v.1.15,2013-12-11 00:55:00,
2013-12-10 20:00:00,57.6,47.5,30.22,NNW,329,0.0,0.0,69,0.00,,,0.06,Wunderground v.1.15,2013-12-11 01:00:00,
2013-12-10 20:05:00,57.5,47.8,30.22,WNW,301,0.0,2.0,70,0.00,,,0.06,Wunderground v.1.15,2013-12-11 01:05:00,
2013-12-10 20:10:00,57.3,48.0,30.22,NW,313,0.0,0.0,71,0.00,,,0.06,Wunderground v.1.15,2013-12-11 01:10:00,
2013-12-10 20:15:00,57.0,48.1,30.23,NW,313,1.0,1.0,72,0.00,,,0.06,Wunderground v.1.15,2013-12-11 01:15:00,
2013-12-10 20:20:00,56.9,48.3,30.23,SE,128,0.0,1.0,73,0.00,,,0.06,Wunderground v.1.15,2013-12-11 01:20:00,
2013-12-10 20:25:00,56.6,48.0,30.23,SSW,201,0.0,3.0,73,0.00,,,0.06,Wunderground v.1.15,2013-12-11 01:25:00,
2013-12-10 20:30:00,56.3,47.4,30.23,East,84,0.0,5.0,72,0.00,,,0.06,Wunderground v.1.15,2013-12-11 01:30:00,
2013-12-10 20:35:00,56.0,47.1,30.23,NE,44,0.0,5.0,72,0.00,,,0.06,Wunderground v.1.15,2013-12-11 01:35:00,
2013-12-10 20:40:00,55.9,47.4,30.23,SE,125,1.0,3.0,73,0.00,,,0.06,Wunderground v.1.15,2013-12-11 01:40:00,
2013-12-10 20:45:00,55.7,47.5,30.24,SE,136,0.0,3.0,74,0.00,,,0.06,Wunderground v.1.15,2013-12-11 01:45:00,
2013-12-10 20:50:00,55.4,47.6,30.24,WNW,294,0.0,2.0,75,0.00,,,0.06,Wunderground v.1.15,2013-12-11 01:50:00,
2013-12-10 20:55:00,55.3,47.5,30.24,NW,322,0.0,3.0,75,0.00,,,0.06,Wunderground v.1.15,2013-12-11 01:55:00,
2013-12-10 21:01:00,55.1,47.7,30.24,East,95,0.0,1.0,76,0.00,,,0.06,Wunderground v.1.15,2013-12-11 02:01:00,
2013-12-10 21:06:00,55.0,47.6,30.24,East,95,0.0,1.0,76,0.00,,,0.06,Wunderground v.1.15,2013-12-11 02:06:00,
2013-12-10 21:11:00,54.7,47.6,30.24,WSW,241,0.0,0.0,77,0.00,,,0.06,Wunderground v.1.15,2013-12-11 02:11:00,
2013-12-10 21:16:00,54.5,47.8,30.25,SE,136,0.0,1.0,78,0.00,,,0.06,Wunderground v.1.15,2013-12-11 02:16:00,
2013-12-10 21:21:00,54.4,47.7,30.25,SE,136,0.0,0.0,78,0.00,,,0.06,Wunderground v.1.15,2013-12-11 02:21:00,
2013-12-10 21:26:00,54.2,47.8,30.25,SE,136,0.0,2.0,79,0.00,,,0.06,Wunderground v.1.15,2013-12-11 02:26:00,
2013-12-10 21:31:00,54.1,48.1,30.26,SE,136,0.0,0.0,80,0.00,,,0.06,Wunderground v.1.15,2013-12-11 02:31:00,
2013-12-10 21:36:00,53.9,47.9,30.26,SE,136,0.0,0.0,80,0.00,,,0.06,Wunderground v.1.15,2013-12-11 02:36:00,
2013-12-10 21:41:00,53.8,48.1,30.26,SE,136,0.0,0.0,81,0.00,,,0.06,Wunderground v.1.15,2013-12-11 02:41:00,
2013-12-10 21:46:00,53.5,48.1,30.26,SE,146,0.0,0.0,82,0.00,,,0.06,Wunderground v.1.15,2013-12-11 02:46:00,
2013-12-10 21:51:00,53.3,47.9,30.26,SE,146,0.0,0.0,82,0.00,,,0.06,Wunderground v.1.15,2013-12-11 02:51:00,
2013-12-10 21:56:00,53.2,47.8,30.26,SE,146,0.0,0.0,82,0.00,,,0.06,Wunderground v.1.15,2013-12-11 02:56:00,
2013-12-10 22:01:00,53.1,48.1,30.27,SE,146,0.0,0.0,83,0.00,,,0.06,Wunderground v.1.15,2013-12-11 03:01:00,
2013-12-10 22:06:00,52.8,47.8,30.27,SW,221,0.0,0.0,83,0.00,,,0.06,Wunderground v.1.15,2013-12-11 03:06:00,
2013-12-10 22:11:00,52.6,47.6,30.27,NW,315,0.0,0.0,83,0.00,,,0.06,Wunderground v.1.15,2013-12-11 03:11:00,
2013-12-10 22:16:00,52.5,47.8,30.28,NW,315,0.0,0.0,84,0.00,,,0.06,Wunderground v.1.15,2013-12-11 03:16:00,
2013-12-10 22:22:00,52.3,47.6,30.28,NW,315,0.0,0.0,84,0.00,,,0.06,Wunderground v.1.15,2013-12-11 03:22:00,
2013-12-10 22:27:00,52.2,47.8,30.28,West,274,0.0,1.0,85,0.00,,,0.06,Wunderground v.1.15,2013-12-11 03:27:00,
2013-12-10 22:32:00,52.0,47.6,30.29,WSW,256,0.0,0.0,85,0.00,,,0.06,Wunderground v.1.15,2013-12-11 03:32:00,
2013-12-10 22:37:00,51.9,47.5,30.29,South,176,1.0,2.0,85,0.00,,,0.06,Wunderground v.1.15,2013-12-11 03:37:00,
2013-12-10 22:42:00,51.7,47.6,30.29,SE,142,0.0,0.0,86,0.00,,,0.06,Wunderground v.1.15,2013-12-11 03:42:00,
2013-12-10 22:47:00,51.6,47.5,30.30,SE,142,0.0,1.0,86,0.00,,,0.06,Wunderground v.1.15,2013-12-11 03:47:00,
2013-12-10 22:53:00,51.6,47.5,30.30,South,188,0.0,1.0,86,0.00,,,0.06,Wunderground v.1.15,2013-12-11 03:53:00,
2013-12-10 22:58:00,51.4,47.7,30.30,SE,140,0.0,2.0,87,0.00,,,0.06,Wunderground v.1.15,2013-12-11 03:58:00,
2013-12-10 23:03:00,51.3,47.6,30.30,SE,140,0.0,0.0,87,0.00,,,0.06,Wunderground v.1.15,2013-12-11 04:03:00,
2013-12-10 23:08:00,51.1,47.4,30.30,SE,142,1.0,1.0,87,0.00,,,0.06,Wunderground v.1.15,2013-12-11 04:08:00,
2013-12-10 23:13:00,51.0,47.3,30.30,SSE,159,0.0,3.0,87,0.00,,,0.06,Wunderground v.1.15,2013-12-11 04:13:00,
2013-12-10 23:18:00,50.8,46.8,30.30,South,170,0.0,3.0,86,0.00,,,0.06,Wunderground v.1.15,2013-12-11 04:18:00,
2013-12-10 23:23:00,50.7,46.7,30.30,WNW,300,0.0,1.0,86,0.00,,,0.06,Wunderground v.1.15,2013-12-11 04:23:00,
2013-12-10 23:28:00,50.5,46.5,30.30,WNW,300,1.0,1.0,86,0.00,,,0.06,Wunderground v.1.15,2013-12-11 04:28:00,
2013-12-10 23:33:00,50.4,46.4,30.31,SW,225,0.0,2.0,86,0.00,,,0.06,Wunderground v.1.15,2013-12-11 04:33:00,
2013-12-10 23:38:00,50.2,46.5,30.31,SSE,159,1.0,2.0,87,0.00,,,0.06,Wunderground v.1.15,2013-12-11 04:38:00,
2013-12-10 23:43:00,50.1,46.4,30.31,SSE,159,0.0,0.0,87,0.00,,,0.06,Wunderground v.1.15,2013-12-11 04:43:00,
2013-12-10 23:48:00,49.9,46.2,30.31,SSE,157,0.0,2.0,87,0.00,,,0.06,Wunderground v.1.15,2013-12-11 04:48:00,
2013-12-10 23:53:00,49.9,46.2,30.31,SSE,157,0.0,0.0,87,0.00,,,0.06,Wunderground v.1.15,2013-12-11 04:53:00,
2013-12-10 23:58:00,49.8,46.1,30.31,SSE,157,0.0,2.0,87,0.00,,,0.06,Wunderground v.1.15,2013-12-11 04:58:00,